User: anonymous   Login
Location: Unspecified
(0.0000°N, 0.0000°E)
Time: 22:08:45
(UTC+00:00)
Language:

N. Korean satellite - Orbit

View from above orbital plane
View from above orbital plane
View from above satellite
View from above satellite

Ground track
Ground track

The orbit data is extracted from the following two-line orbital elements,

1 39026U 12072A   17289.15088770  .00002520  00000-0  98588-4 0  9996
2 39026  97.2201 302.8643 0041924 107.8973 252.6844 15.25919997268435
Epoch (UTC): 16 October 2017 03:37:16
Eccentricity: 0.0041924
inclination: 97.2201°
perigee height: 459 km
apogee height: 517 km
right ascension of ascending node: 302.8643°
argument of perigee: 107.8973°
revolutions per day: 15.25919997
mean anomaly at epoch: 252.6844°
orbit number at epoch: 26843

The dashed part of the orbit path shows where the satellite is in the earth's shadow,  

DLR